www.pogodaiklimat.ru

Погода и климат >> Архив погоды >> Россия >> Хабаровский край >> Николаевск-на-Амуре


АРХИВ ПОГОДЫ в Николаевск-на-Амуре

Время (UTC), дата Ветер
(напр.,м/с)
 
Видим.   Явления Облачность Т
(С)
Тd
(С)
f
(%)
Тe
(С)
Тes
(С)
Комфортность P
(гПа)
Po
(гПа)
Тmin
(С)
Tmax
(С)
R
(мм)
R24
(мм)
S
(см)
15 15.07 В 2 20 км 8/4 600 м
[Sc Ci]
+17.3 +14.6 84 +18 +18 тепло 1010.7 1005.3
18 15.07 СВ 2 20 км 8/8 600 м
[Sc]
+16.3 +14.4 89 +16 +16 тепло 1010.2 1004.8
21 15.07 В 2 50 км 3/0
[Ci fib]
+19.5 +15.6 78 +22 +24 комфорт 1010.2 1004.8 +15.9
00 16.07 Ю 1 50 км 3/0
[Ci fib]
+24.2 +16.8 63 +28 +40 душно 1009.8 1004.5
03 16.07 ЮВ 4 50 км 6/3 1000 м
[Cu med, cong Ci sp]
+24.4 +17.5 65 +28 +35 душно 1008.8 1003.5
06 16.07 В 4 50 км гроза без осадков 8/4 600 м
[Cu med, cong Ci sp]
+24.2 +17.5 66 +28 +31 душно 1007.5 1002.2
09 16.07 В 3 50 км {гроза} 4/1 1500 м
[Sc diur, vesp Ac trans Ci fib]
+21.3 +17.4 78 +25 +26 комфорт 1007.2 1001.9 +25.6
12 16.07 В 2 20 км {гроза} 4/0
[Ac trans]
+19.3 +17.8 91 +22 +22 комфорт 1008.0 1002.6
15 16.07 В 2 20 км 3/0
[Ac trans]
+18.5 +17.5 94 +20 +20 тепло 1007.6 1002.2
18 16.07 В 2 20 км 3/0
[Ci fib]
+17.0 +16.2 95 +17 +17 тепло 1007.1 1001.7
21 16.07 В 3 50 км ясно +19.4 +17.7 90 +22 +24 комфорт 1006.6 1001.2 +17.0
00 17.07 ЮВ 4 50 км 1/1 1000 м
[Sc]
+22.5 +18.3 77 +28 +35 душно 1006.1 1000.8
03 17.07 ЮВ 6 50 км 4/4 1000 м
[Cu med, cong]
+23.6 +18.1 71 +28 +32 душно 1005.3 1000.0
06 17.07 ЮВ 4
{11}
50 км гроза без осадков 9/6 600 м
[Cb cap Ci sp]
+20.9 +17.7 82 +25 +27 комфорт 1004.1 998.8
09 17.07 В 3 50 км {гроза} 10/8 600 м
[Sc diur, vesp Ac trans]
+20.7 +17.9 84 +25 +25 комфорт 1004.5 999.2 +23.9
12 17.07 ЮВ 4 20 км {гроза} 10/4 300 м
[Sc As op]
+19.5 +17.6 89 +22 +22 комфорт 1004.6 999.2
15 17.07 В 3 500 м 6/1 600 м
[Sc Cc]
+18.4 +17.0 92 +19 +19 тепло 1004.2 998.9
18 17.07 В 2 20 км 5/5 600 м
[Sc]
+17.0 +16.1 94 +17 +17 тепло 1003.8 998.4
21 17.07 В 3 50 км 8/3 1000 м
[Sc Ac trans]
+19.3 +17.0 87 +21 +22 комфорт 1003.8 998.5 +16.8
00 18.07 ЮВ 4 50 км 3/3 1000 м
[Sc]
+22.4 +17.9 76 +27 +33 душно 1003.3 998.0
03 18.07 ЮВ 5 50 км в посл. час ливневой дождь 8/8 600 м
[Cb cap]
+23.6 +18.3 72 +28 +30 душно 1002.6 997.3
06 18.07 ЮВ 6-11
{11}
50 км гроза без осадков {ливн. осадки} 8/8 600 м
[Cb calv]
+22.2 +17.9 77 +27 +28 душно 1001.6 996.3
09 18.07 ЮВ 5
{11}
50 км в посл. час гроза 9/9 600 м
[Cb cap]
+20.0 +17.6 86 +23 +23 комфорт 1001.8 996.5 +23.7 0.0
12 18.07 В 3 20 км {гроза} 9/9 600 м
[Sc diur, vesp]
+19.0 +16.9 88 +21 +21 комфорт 1002.8 997.4
15 18.07 В 2 20 км 6/6 600 м
[Sc]
+17.1 +15.9 93 +17 +17 тепло 1002.9 997.5
18 18.07 СВ 1 20 км 6/6 600 м
[Sc]
+15.4 +14.4 94 +16 +16 тепло 1002.9 997.5
21 18.07 штиль 0 50 км 10/10 600 м
[Sc]
+17.6 +16.7 94 +18 +18 тепло 1003.7 998.3 +14.8
00 19.07 З 1 50 км 8/3 600 м
[Sc Ci sp]
+22.0 +18.6 81 +27 +35 душно 1004.0 998.7
03 19.07 ЮВ 4 50 км 4/4 600 м
[Sc]
+23.9 +18.8 73 +29 +35 душно 1003.7 998.4
06 19.07 ЮВ 6-10
{10}
50 км 6/3 600 м
[Sc Ci]
+23.3 +18.6 75 +29 +32 душно 1004.3 999.0
09 19.07 ЮВ 5
{10}
50 км 4/0
[Ci sp]
+21.0 +18.0 83 +25 +26 комфорт 1005.4 1000.1 +24.5
12 19.07 В 3 20 км 6/1 600 м
[Sc Ac trans Ci fib]
+19.3 +18.0 92 +22 +22 комфорт 1006.8 1001.4
15 19.07 В 2 20 км 4/0
[Ci fib]
+18.0 +17.1 94 +19 +19 тепло 1008.0 1002.6
18 19.07 СВ 1 20 км 6/1 600 м
[Sc Ac trans Ci fib]
+16.3 +15.5 95 +17 +17 тепло 1008.8 1003.4
21 19.07 В 2 50 км 10/10 200 м
[St]
+18.4 +17.0 92 +20 +20 тепло 1011.1 1005.7 +15.8
00 20.07 СВ 2 50 км в посл. час дождь 10/10 1000 м
[Sc]
+19.5 +16.5 83 +22 +22 комфорт 1012.4 1007.0
03 20.07 ЮВ 2 50 км в посл. час дождь 10/10 1000 м
[Sc]
+22.6 +18.0 75 +28 +28 душно 1012.7 1007.4
06 20.07 ЮВ 5 50 км {дождь} 10/10 1000 м
[Sc]
+20.7 +17.7 83 +24 +24 комфорт 1012.7 1007.4
09 20.07 СВ 3 50 км 10/10 1000 м
[Sc]
+18.9 +16.0 83 +20 +20 тепло 1013.0 1007.6 +23.3 0.0
12 20.07 В 4 20 км 10/10 600 м
[Sc]
+18.9 +17.1 89 +20 +20 тепло 1013.2 1007.8
15 20.07 В 4 20 км 10/10 600 м
[Sc]
+18.2 +16.9 92 +18 +18 тепло 1012.1 1006.7
18 20.07 В 1 20 км 10/10 600 м
[]
+18.3 +17.0 92 +20 +20 тепло 1010.9 1005.0
21 20.07 СВ 1 50 км 10/10 600 м
[Sc]
+18.4 +17.0 92 +20 +20 тепло 1011.0 1005.6 +17.9
00 21.07 С 2 10 км слаб. дождь 10/10 300 м
[Sc]
+18.7 +16.9 89 +20 +20 тепло 1011.5 1006.1
03 21.07 С 3 10 км слаб. дождь 10/10 300 м
[Sc]
+15.2 +12.9 86 +14 +14 холодно 1013.2 1007.8
06 21.07 С 2 10 км слаб. ливневой дождь 10/10 300 м
[Cb cap]
+13.5 +12.3 92 +13 +13 очень
холодно
1014.1 1008.6
09 21.07 СВ 1 50 км {ливн. осадки} 10/10 300 м
[Cb cap]
+13.1 +11.5 90 +13 +13 холодно 1015.1 1009.6 +18.9 4
12 21.07 СВ 2 20 км {ливн. осадки} 10/10 600 м
[Cb cap]
+12.4 +11.2 92 +11 +11 прохладно 1015.9 1010.3
15 21.07 СВ 1 20 км 10/10 600 м
[Cb cap]
+12.5 +11.4 93 +12 +12 по сезону 1015.1 1009.5
18 21.07 В 2 20 км 10/10 600 м
[Sc diur, vesp]
+13.3 +11.7 90 +13 +13 по сезону 1013.7 1008.2
21 21.07 В 3 50 км 10/10 600 м
[Cb cap]
+13.6 +12.1 91 +12 +12 прохладно 1012.5 1007.0 +12.3
00 22.07 В 2 50 км 10/10 600 м
[Cb cap]
+14.7 +12.9 89 +14 +14 прохладно 1011.2 1005.7
03 22.07 В 3 20 км слаб. ливневой дождь 10/10 300 м
[Cb cap]
+15.6 +14.3 92 +15 +15 прохладно 1009.0 1003.6
06 22.07 В 3 20 км слаб. ливневой дождь 10/10 300 м
[Cb cap]
+16.0 +15.0 94 +15 +15 холодно 1007.0 1001.6
09 22.07 В 2 50 км в посл. час ливневой дождь 10/10 300 м
[Cb cap]
+17.5 +16.0 91 +18 +18 по сезону 1004.9 999.5 +17.5 0.6
12 22.07 В 2 20 км {ливн. осадки} 10/10 300 м
[Cb cap]
+17.1 +15.9 93 +17 +17 тепло 1003.3 998.0

 

Местоположение метеостанции Николаевск-на-Амуре (Хабаровский край, Россия): широта 53.15 долгота 140.70 высота над уровнем моря 46 м.

В архиве по умолчанию представлена погода в Николаевск-на-Амуре за последнюю неделю. Архивные данные за месяц целиком и за предыдущие месяцы, начиная с января 2011 года, Вы можете получить, выбрав интересующий диапазон дат из раскрывающегося списка и нажав кнопку "Ввод!".


*Определитесь, кто Вы:
робот инопланетянин человек

Внимание! Время в таблицах - всемирное. Для получения местного времени необходимо прибавить поправку, которая равна 10 ч.

Смотрите также архив погоды в соседних городах и на ближайших метеорологических станциях:

Погода в Байдукове (Хабаровский край, Россия) (50 км)
Погода в Джаоре (Хабаровский край, Россия) (63 км)
Погода в Богородском (Хабаровский край, Россия) (88 км)
Погода в Литке (Хабаровский край, Россия) (93 км)
Погода в Погибях (Сахалинская область, Россия) (120 км)
Погода в Москальво (Сахалинская область, Россия) (128 км)
Погода в Удинске (Хабаровский край, Россия) (130 км)
Погода в Оха (Сахалинская область, Россия) (151 км)
Погода в Мариинском (Хабаровский край, Россия) (163 км)
Погода в Одопту (Сахалинская область, Россия) (169 км)

Пояснения к столбцам:

Ветер - указаны скорость ветра в м/с - средняя за 10 мин, порывы в срок и между сроками (в фигурных скобках) и направление, откуда дует ветер: С - северный, СВ - северо-восточный, В - восточный, ЮВ - юго-восточный, Ю - южный, ЮЗ - юго-западный, З - западный, СЗ - северо-западный.
Видимость - горизонтальная дальность видимости в метрах или километрах. При видимости от 1 до 10 км при отсутствии осадков обычно наблюдается дымка, при ухудшении видимости до 1 км и менее - туман. В сухую погоду видимость может ухудшаться дымом, пылью или мглою.
Явления - указаны атмосферные явления, наблюдавшиеся в срок или в последний час перед сроком; фигурными скобками обозначены явления, наблюдавшиеся между сроками (за 1-3 часа до срока); квадратными скобками обозначены град или гололедные отложения с указанием их диаметра в мм.
Облачность - указаны через наклонную черту общая и нижняя облачность в баллах и высота нижней границы облаков в метрах; квадратными скобками обозначены формы облаков: Ci - перистые, Cs - перисто-слоистые, Cc - перисто-кучевые, Ac - высококучевые, As - высокослоистые, Sc - слоисто-кучевые, Ns - слоисто-дождевые, Cu - кучевые, Cb - кучево-дождевые. Подробнее классификацию облаков см. в Атласе облаков (PDF).
T - Температура воздуха - температура, измеренная на высоте 2 м над землей.
Td - Температура точки росы - температура, при понижении до которой содержащийся в воздухе водяной пар достигнет насыщения.
f - Относительная влажность воздуха - влажноcть воздуха, измеренная на высоте 2 м над землей.
Te - Эффективная температура - температура, которую ощущает одетый по сезону человек в тени. Характеристика душности погоды. При расчете учитывается влияние влажности воздуха и скорости ветра на теплоощущения человека.
Tes - Эффективная температура на солнце - температура, которую ощущает человек, с поправкой на солнечный нагрев. Характеристика знойности погоды. Зависит от высоты солнца над горизонтом, облачности и скорости ветра. Ночью, в пасмурную погоду, а также при ветре 12 м/с и более поправка равна нулю.
P - Атмосферное давление - приведенное к уровню моря атмосферное давление.
Po - Атмосферное давление - измеренное на уровне метеостанции атмосферное давление.
Tmin - Минимальная температура - минимум температуры воздуха на высоте 2 м над землей.
Tmax - Максимальная температура - максимум температуры воздуха на высоте 2 м над землей.
R - Количество осадков - Количество выпавших осадков за период времени, мм. При наведении курсора мыши на число - период времени, за который выпало указанное количество осадков.
R24 - Количество осадков - Количество выпавших осадков за 24 часа, мм.
S - Снежный покров - Высота снежного покрова, см. При наведении курсора мыши на число - состояние снежного покрова и степень покрытия местности в баллах.